Tracking 19846 objects as of 20-Sep-2019
HD Live streaming from Space Station
objects crossing your sky now

THORAD DELTA 1 DEB

Track THORAD DELTA 1 DEB now!
10-day predictions


NORAD ID: 42595
Int'l Code: 1974-089FL
Perigee: 1,454.7 km
Apogee: 1,519.5 km
Inclination: 101.6 °
Period: 115.5 minutes
Semi major axis: 7858 km
RCS: Unknown
Launch date: November 15, 1974
Source: United States (US)
Launch site: AIR FORCE WESTERN TEST RANGE (AFWTR)

Note: This is SATELLITE DEBRIS
aabbcc
Your satellite tracking list
Your tracking list is empty




NASA's NSSDC Master Catalog

Two Line Element Set (TLE):
1 42595U 74089FL  19263.02821126 -.00000048  00000-0 -30180-4 0  9996
2 42595 101.5775 291.6871 0041203 344.5819  15.3992 12.46311675756903
Source of the keplerian elements: AFSPC